[[{"header":{"parameterUnit":"m.s-1","parameterCategory":1,"la1":30.2991,"la2":30.254,"lo1":-89.0895,"lo2":-89.0444,"dy":0.0017,"dx":0.0017,"nx":28,"ny":28,"refTime":"2025-08-20T09:00:00:Z","depth":0,"parameterNumber":2,"parameterNumberName":"U-component_of_WINDS"},"data":[0,0,0,0,0,0,0,0,0,0,0,0,0,0,0,0,0,0,0,0,0,0,0,0,0,0,0,0,0,0,0,0,0,0,0,0,0,0,0,0,0,0,0,0,0,0,0,0,0,0,0,0,0,0,0,0,0,0,-1.4816,-1.4815,0,-1.4747,-1.4746,-1.4746,-1.4664,-1.4663,-1.4662,-1.4661,-1.4589,-1.4588,-1.4587,0,0,0,0,0,0,0,0,0,0,0,0,0,-1.4877,-1.4876,-1.4816,-1.4815,-1.4814,-1.4747,-1.4746,-1.4745,-1.4665,-1.4663,-1.4662,-1.466,-1.4589,-1.4588,-1.4587,0,0,0,0,0,0,0,0,0,0,0,0,0,-1.4834,-1.4876,-1.4816,-1.4766,-1.4761,-1.4747,-1.4746,-1.4745,-1.4665,-1.4663,-1.4661,-1.4659,-1.4589,-1.4588,-1.4587,-1.4617,0,0,-1.4584,-1.4583,0,0,0,0,0,0,0,0,-1.4836,-1.4831,-1.4774,-1.4769,-1.4763,-1.4712,-1.4741,-1.4702,-1.4665,-1.4701,-1.4661,-1.4658,-1.4631,-1.4627,-1.4618,-1.4614,-1.4611,-1.4583,-1.4583,-1.4582,-1.4582,0,0,0,0,0,0,0,-1.4839,-1.4834,-1.4789,-1.4773,-1.4767,-1.4747,-1.4738,-1.4734,-1.4677,-1.4698,-1.4692,-1.4685,-1.4628,-1.4619,-1.4615,-1.461,-1.4583,-1.4582,-1.4582,-1.4581,-1.4628,-1.463,0,0,0,0,0,0,-1.485,-1.4837,-1.4791,-1.4786,-1.4796,-1.4747,-1.4738,-1.4731,-1.4677,-1.4667,-1.4687,-1.4681,-1.4622,-1.4617,-1.4613,-1.4644,-1.4582,-1.4581,-1.4581,-1.4626,-1.4629,-1.4631,0,0,0,0,0,0,-1.4852,-1.4847,-1.4793,-1.481,-1.4802,-1.4748,-1.4741,-1.473,-1.4721,-1.4669,-1.4658,-1.4688,-1.462,-1.4614,-1.4617,-1.4641,-1.4581,-1.458,-1.4624,-1.4627,-1.463,-1.4709,0,0,0,0,0,0,-1.4854,-1.4848,-1.4858,-1.4811,-1.4801,-1.4799,-1.4742,-1.473,-1.472,-1.4712,-1.4667,-1.4658,-1.4618,-1.4619,-1.4616,-1.4638,-1.4579,-1.4622,-1.4625,-1.4629,-1.4704,-1.4714,-1.4723,0,0,0,0,0,-1.4856,-1.4883,-1.4859,-1.4854,-1.4814,-1.4801,-1.4795,-1.475,-1.4722,-1.4732,-1.4699,-1.4659,-1.4639,-1.462,-1.4616,-1.4638,-1.462,-1.4624,-1.4629,-1.47,-1.4712,-1.4723,0,0,0,0,0,0,-1.4933,-1.4875,-1.4849,-1.4861,-1.4837,-1.4787,-1.4798,-1.4764,-1.4747,-1.474,-1.4684,-1.4675,-1.4685,-1.4662,-1.4641,-1.4665,-1.4624,-1.4628,-1.4679,-1.4691,-1.47,-1.4705,-1.4578,0,0,0,0,0,-1.4952,-1.4946,-1.4896,-1.4912,-1.4901,-1.4853,-1.4845,-1.4813,-1.4785,-1.4774,-1.474,-1.4715,-1.4703,-1.4696,-1.4682,-1.4701,-1.469,-1.4714,-1.4724,-1.4732,-1.4735,-1.4745,-1.4755,-1.4645,-1.4645,-1.4645,0,0,-1.4989,-1.4957,-1.4957,-1.4927,-1.4904,-1.49,-1.4844,-1.4841,-1.4838,-1.4773,-1.4774,-1.4749,-1.4717,-1.4728,-1.4732,-1.4709,-1.4764,-1.4738,-1.4745,-1.4743,-1.475,-1.4761,-1.477,-1.4648,-1.4648,-1.4647,0,0,-1.5056,-1.5032,-1.5042,-1.5021,-1.4988,-1.4956,-1.4959,-1.4915,-1.4896,-1.4896,-1.4848,-1.4843,-1.4824,-1.4803,-1.479,-1.4852,-1.4815,-1.4849,-1.4898,-1.4908,-1.4916,-1.4924,-1.4946,-1.4954,-1.4853,-1.4853,-1.4853,0,-1.5107,-1.5099,-1.5052,-1.5053,-1.5041,-1.4984,-1.4994,-1.4976,-1.494,-1.4933,-1.4909,-1.4885,-1.4859,-1.4865,-1.4881,-1.4872,-1.4873,-1.4853,-1.4919,-1.4926,-1.4932,-1.4953,-1.4961,-1.4857,-1.4857,-1.4856,-1.4856,0,-1.5163,-1.5158,-1.5171,-1.5139,-1.5128,-1.5134,-1.5088,-1.5084,-1.5053,-1.5024,-1.5026,-1.4993,-1.4972,-1.4972,-1.4941,-1.4974,-1.4961,-1.493,-1.4886,-1.4948,-1.4966,-1.4973,-1.4864,-1.4862,-1.4861,-1.486,0,0,-1.5273,-1.5217,-1.5222,-1.5207,-1.5168,-1.5163,-1.5168,-1.5148,-1.5145,-1.5123,-1.5125,-1.5111,-1.5082,-1.5067,-1.5034,-1.5043,-1.5095,-1.501,-1.5008,-1.5026,-1.5129,-1.5153,-1.5163,-1.5071,-1.5072,-1.5073,-1.5132,0,-1.5332,-1.5335,-1.5294,-1.5309,-1.5304,-1.5251,-1.5255,-1.5231,-1.5205,-1.5197,-1.5168,-1.5159,-1.5121,-1.5112,-1.5119,-1.5087,-1.5114,-1.5082,-1.5071,-1.5071,-1.508,-1.5172,-1.5196,-1.5253,-1.5139,-1.514,-1.5141,0,-1.5399,-1.5383,-1.5397,-1.5359,-1.5355,-1.5359,-1.5339,-1.5332,-1.5305,-1.5285,-1.5271,-1.5234,-1.5235,-1.5196,-1.5198,-1.5177,-1.5171,-1.5155,-1.5156,-1.5152,-1.5109,-1.5169,-1.527,-1.5278,-1.5151,-1.5151,-1.515,0,-1.5478,-1.5459,-1.5465,-1.5454,-1.541,-1.5414,-1.5395,-1.5367,-1.5358,-1.5341,-1.5334,-1.5318,-1.5308,-1.5296,-1.5255,-1.5231,-1.5262,-1.5219,-1.5245,-1.5246,-1.5252,-1.5252,-1.5352,-1.5251,-1.525,-1.525,-1.525,0,-1.5547,-1.5557,-1.55,-1.5504,-1.5515,-1.5469,-1.5481,-1.5457,-1.5432,-1.5431,-1.5385,-1.5384,-1.5332,-1.5326,-1.5295,-1.5301,-1.5297,-1.5281,-1.5272,-1.5284,-1.5286,-1.5278,-1.5272,-1.5252,-1.5252,-1.5252,-1.5251,0,-1.5635,-1.5597,-1.56,-1.5559,-1.5549,-1.5559,-1.5523,-1.5525,-1.5497,-1.5496,-1.5493,-1.5449,-1.5439,-1.5399,-1.5379,-1.5358,-1.5375,-1.5359,-1.5384,-1.5378,-1.5406,-1.5404,-1.5503,-1.5513,-1.5407,-1.5408,-1.5409,0,-1.568,-1.5687,-1.5648,-1.5644,-1.5628,-1.5622,-1.5613,-1.5569,-1.5562,-1.5534,-1.5539,-1.5527,-1.5514,-1.5502,-1.5467,-1.5453,-1.5435,-1.5471,-1.5432,-1.5445,-1.5435,-1.5434,-1.5435,-1.5479,-1.548,-1.5481,-1.5482,0,-1.5765,-1.5746,-1.5736,-1.572,-1.5712,-1.5697,-1.5679,-1.5679,-1.563,-1.5625,-1.5615,-1.5606,-1.5587,-1.5575,-1.5556,-1.5536,-1.5501,-1.5496,-1.55,-1.5512,-1.5526,-1.5518,-1.5405,-1.5493,-1.5492,-1.5491,-1.549,-1.549,-1.5832,-1.5837,-1.581,-1.58,-1.5783,-1.5768,-1.5768,-1.5741,-1.5733,-1.5714,-1.5689,-1.5684,-1.5658,-1.5628,-1.5612,-1.5607,-1.5587,-1.5595,-1.5596,-1.5598,-1.5604,-1.5529,-1.5603,-1.5603,-1.5603,-1.5602,-1.5602,0,-1.5914,-1.5895,-1.5887,-1.5864,-1.5857,-1.5827,-1.5807,-1.5803,-1.5798,-1.5778,-1.5767,-1.5757,-1.5746,-1.5712,-1.5698,-1.57,-1.5684,-1.5698,-1.5696,-1.5693,-1.5623,-1.562,-1.5711,-1.5711,-1.5711,-1.5711,-1.5711,-1.5711,-1.5955,-1.5961,-1.594,-1.5938,-1.5918,-1.5912,-1.5904,-1.589,-1.5873,-1.5864,-1.5855,-1.5834,-1.5809,-1.5793,-1.5781,-1.5772,-1.5768,-1.5787,-1.5773,-1.5708,-1.5697,-1.5687,-1.5684,-1.5787,-1.5787,-1.5842,-1.5843,-1.5843]},{"header":{"parameterUnit":"m.s-1","parameterCategory":1,"la1":30.2991,"la2":30.254,"lo1":-89.0895,"lo2":-89.0444,"dy":0.0017,"dx":0.0017,"nx":28,"ny":28,"refTime":"2025-08-20T09:00:00:Z","depth":0,"parameterNumber":3,"parameterNumberName":"V-component_of_WINDS"},"data":[0,0,0,0,0,0,0,0,0,0,0,0,0,0,0,0,0,0,0,0,0,0,0,0,0,0,0,0,0,0,0,0,0,0,0,0,0,0,0,0,0,0,0,0,0,0,0,0,0,0,0,0,0,0,0,0,0,0,2.3305,2.3306,0,2.3341,2.3341,2.3342,2.3386,2.3387,2.3388,2.3388,2.3422,2.3422,2.3422,0,0,0,0,0,0,0,0,0,0,0,0,0,2.3273,2.3274,2.3305,2.3306,2.3306,2.3341,2.3341,2.3342,2.3386,2.3387,2.3388,2.3389,2.3422,2.3422,2.3422,0,0,0,0,0,0,0,0,0,0,0,0,0,2.3296,2.3274,2.3305,2.3333,2.3336,2.3341,2.3341,2.3342,2.3386,2.3387,2.3388,2.3389,2.3422,2.3422,2.3422,2.3402,0,0,2.3423,2.3423,0,0,0,0,0,0,0,0,2.3294,2.3297,2.3328,2.3331,2.3334,2.336,2.3342,2.3362,2.3386,2.3367,2.3389,2.339,2.34,2.3402,2.3407,2.3404,2.3405,2.3423,2.3423,2.3424,2.3424,0,0,0,0,0,0,0,2.3293,2.3296,2.3319,2.3329,2.3332,2.3342,2.3347,2.3346,2.3377,2.3368,2.3372,2.3376,2.3402,2.3406,2.3408,2.3406,2.3423,2.3423,2.3424,2.3424,2.3387,2.3386,0,0,0,0,0,0,2.3288,2.3294,2.3318,2.332,2.3317,2.3342,2.3347,2.3351,2.3377,2.3382,2.3375,2.3378,2.3405,2.3407,2.3409,2.3386,2.3424,2.3424,2.3424,2.3389,2.3387,2.3386,0,0,0,0,0,0,2.3287,2.3289,2.3317,2.3308,2.3312,2.3341,2.3345,2.3351,2.3355,2.3382,2.3387,2.3373,2.3406,2.3409,2.3404,2.3388,2.3424,2.3424,2.339,2.3388,2.3387,2.3342,0,0,0,0,0,0,2.3286,2.3289,2.3282,2.3308,2.3313,2.3311,2.3344,2.3351,2.3356,2.336,2.3382,2.3387,2.3407,2.3403,2.3404,2.3389,2.3425,2.3391,2.3389,2.3387,2.3345,2.3339,2.3333,0,0,0,0,0,2.3284,2.3268,2.3282,2.3284,2.3305,2.3311,2.3313,2.3338,2.3354,2.3347,2.3364,2.3386,2.339,2.3402,2.3404,2.3389,2.3392,2.339,2.3387,2.3347,2.334,2.3334,0,0,0,0,0,0,2.3239,2.3272,2.3287,2.3279,2.3292,2.3318,2.331,2.333,2.3337,2.3341,2.3371,2.3375,2.3366,2.3377,2.339,2.337,2.3394,2.3392,2.3363,2.3357,2.3351,2.3348,2.3425,0,0,0,0,0,2.3228,2.323,2.3259,2.3248,2.3254,2.3281,2.3284,2.3302,2.3316,2.3322,2.3338,2.335,2.3354,2.3356,2.3362,2.3347,2.3351,2.3337,2.3332,2.3327,2.3324,2.3316,2.331,2.3377,2.3377,2.3378,0,0,2.3205,2.3223,2.3223,2.3239,2.3251,2.3252,2.3285,2.3285,2.3285,2.3321,2.3318,2.333,2.3346,2.3335,2.3332,2.3344,2.3307,2.3324,2.332,2.332,2.3313,2.3306,2.33,2.3376,2.3376,2.3376,0,0,2.3163,2.3178,2.317,2.3182,2.32,2.3218,2.3216,2.324,2.325,2.3247,2.3274,2.3275,2.3281,2.3291,2.3297,2.3258,2.3278,2.3259,2.323,2.3221,2.3216,2.3211,2.3196,2.3191,2.3257,2.3257,2.3256,0,2.3132,2.3135,2.3164,2.3162,2.3167,2.3201,2.3193,2.3203,2.3221,2.3224,2.3238,2.3247,2.326,2.3252,2.3242,2.3247,2.3244,2.3256,2.3215,2.321,2.3206,2.3192,2.3187,2.3254,2.3254,2.3255,2.3255,0,2.3095,2.3097,2.3089,2.3106,2.3112,2.3106,2.3133,2.3135,2.3152,2.3168,2.3164,2.3181,2.319,2.319,2.3207,2.3183,2.3191,2.3209,2.3234,2.3197,2.3184,2.3179,2.3251,2.3251,2.3252,2.3253,0,0,2.3025,2.3059,2.3055,2.3063,2.3086,2.3087,2.3083,2.3093,2.3093,2.3105,2.3101,2.3106,2.3123,2.313,2.3148,2.3141,2.3108,2.3161,2.3161,2.3149,2.3082,2.3067,2.306,2.3122,2.3121,2.312,2.308,0,2.2986,2.2982,2.3007,2.2996,2.2997,2.3029,2.3026,2.3038,2.3053,2.3056,2.3072,2.3075,2.3098,2.3102,2.3097,2.3113,2.3095,2.3117,2.3117,2.3117,2.3111,2.3054,2.3038,2.2999,2.3076,2.3075,2.3074,0,2.294,2.295,2.2939,2.2962,2.2963,2.2959,2.297,2.2972,2.2987,2.2998,2.3006,2.3027,2.3024,2.3048,2.3043,2.3057,2.3059,2.3067,2.3066,2.3066,2.3092,2.305,2.2987,2.2981,2.3067,2.3067,2.3068,0,2.2888,2.2899,2.2893,2.2899,2.2926,2.2922,2.2933,2.2949,2.2953,2.2962,2.2965,2.2973,2.2977,2.2982,2.3004,2.302,2.2996,2.3023,2.3004,2.3003,2.2996,2.2996,2.2931,2.3,2.3,2.3,2.3,0,2.2841,2.2833,2.287,2.2866,2.2857,2.2886,2.2876,2.289,2.2904,2.2903,2.2932,2.2929,2.296,2.2961,2.2979,2.2971,2.2973,2.2981,2.2986,2.2978,2.2976,2.2978,2.2981,2.2998,2.2999,2.2999,2.2999,0,2.2781,2.2806,2.2801,2.2827,2.2834,2.2826,2.2847,2.2844,2.2862,2.286,2.2861,2.2887,2.289,2.2914,2.2921,2.2933,2.2918,2.2928,2.2913,2.2916,2.2895,2.2896,2.2828,2.282,2.2895,2.2894,2.2893,0,2.2749,2.2743,2.2768,2.277,2.278,2.2782,2.2786,2.2815,2.2818,2.2834,2.2829,2.2834,2.284,2.2842,2.2861,2.2867,2.2877,2.2853,2.2878,2.287,2.2875,2.2874,2.2873,2.2847,2.2846,2.2845,2.2845,0,2.2688,2.2701,2.2706,2.2716,2.272,2.2729,2.2739,2.2739,2.277,2.2772,2.2775,2.278,2.2788,2.2792,2.2802,2.2812,2.2832,2.2837,2.2832,2.2823,2.2814,2.2817,2.2896,2.2838,2.2838,2.2839,2.2839,2.284,2.264,2.2636,2.2653,2.2658,2.2669,2.2678,2.2676,2.2693,2.2697,2.2707,2.2723,2.2724,2.2738,2.2753,2.2762,2.2762,2.2774,2.2769,2.2767,2.2764,2.276,2.2815,2.2764,2.2764,2.2764,2.2765,2.2765,0,2.258,2.2593,2.2597,2.2611,2.2614,2.2635,2.2648,2.2649,2.2649,2.2662,2.2667,2.267,2.2675,2.2695,2.2701,2.2697,2.2707,2.2697,2.2697,2.2699,2.2749,2.2751,2.269,2.269,2.269,2.269,2.269,2.269,2.2549,2.2543,2.2557,2.2556,2.2569,2.2571,2.2576,2.2584,2.2594,2.2597,2.2601,2.2614,2.2629,2.2636,2.2641,2.2647,2.2647,2.2634,2.2642,2.2688,2.2695,2.2702,2.2705,2.2634,2.2634,2.2592,2.2592,2.2592]}]]